TimeMST,TemperatureF,Dew PointF,Humidity,Sea Level PressureIn,VisibilityMPH,Wind Direction,Wind SpeedMPH,Gust SpeedMPH,PrecipitationIn,Events,Conditions,WindDirDegrees,DateUTC
12:51 AM,60.1,32.0,35,30.20,10.0,Calm,Calm,-,N/A,,Clear,0,2013-03-02 07:51:00
1:51 AM,57.0,32.0,39,30.20,10.0,Calm,Calm,-,N/A,,Clear,0,2013-03-02 08:51:00
2:51 AM,57.0,30.9,37,30.20,10.0,East,5.8,-,N/A,,Clear,100,2013-03-02 09:51:00
3:51 AM,57.0,32.0,39,30.21,10.0,Calm,Calm,-,N/A,,Clear,0,2013-03-02 10:51:00
4:51 AM,55.0,32.0,42,30.21,10.0,East,5.8,-,N/A,,Clear,100,2013-03-02 11:51:00
5:51 AM,53.1,33.1,47,30.22,10.0,ENE,4.6,-,N/A,,Clear,70,2013-03-02 12:51:00
6:51 AM,52.0,32.0,47,30.23,10.0,Calm,Calm,-,N/A,,Clear,0,2013-03-02 13:51:00
7:51 AM,55.0,32.0,42,30.25,10.0,East,4.6,-,N/A,,Clear,100,2013-03-02 14:51:00
8:51 AM,61.0,30.9,32,30.25,10.0,East,9.2,-,N/A,,Clear,100,2013-03-02 15:51:00
9:51 AM,66.9,30.0,25,30.24,10.0,ESE,9.2,-,N/A,,Partly Cloudy,120,2013-03-02 16:51:00
10:51 AM,73.0,30.0,20,30.22,10.0,ESE,6.9,-,N/A,,Partly Cloudy,120,2013-03-02 17:51:00
11:51 AM,75.9,28.9,18,30.20,10.0,ESE,4.6,-,N/A,,Partly Cloudy,120,2013-03-02 18:51:00
12:51 PM,78.1,28.0,16,30.16,10.0,Variable,3.5,-,N/A,,Partly Cloudy,0,2013-03-02 19:51:00
1:51 PM,82.0,28.0,14,30.12,10.0,SE,5.8,-,N/A,,Scattered Clouds,130,2013-03-02 20:51:00
2:51 PM,82.0,26.1,13,30.09,10.0,Variable,3.5,-,N/A,,Scattered Clouds,0,2013-03-02 21:51:00
3:51 PM,82.9,26.1,13,30.07,10.0,SW,3.5,-,N/A,,Partly Cloudy,220,2013-03-02 22:51:00
4:51 PM,82.9,24.1,12,30.05,10.0,Calm,Calm,-,N/A,,Scattered Clouds,0,2013-03-02 23:51:00
5:51 PM,82.0,24.1,12,30.05,10.0,SW,3.5,-,N/A,,Scattered Clouds,220,2013-03-03 00:51:00
6:51 PM,80.1,21.9,12,30.04,10.0,West,4.6,-,N/A,,Scattered Clouds,280,2013-03-03 01:51:00
7:51 PM,78.1,25.0,14,30.05,10.0,NW,5.8,-,N/A,,Scattered Clouds,310,2013-03-03 02:51:00
8:51 PM,72.0,27.0,19,30.04,10.0,Calm,Calm,-,N/A,,Scattered Clouds,0,2013-03-03 03:51:00
9:51 PM,66.9,30.9,26,30.05,10.0,Calm,Calm,-,N/A,,Scattered Clouds,0,2013-03-03 04:51:00
10:51 PM,64.9,33.1,31,30.03,10.0,East,5.8,-,N/A,,Scattered Clouds,90,2013-03-03 05:51:00
11:51 PM,64.0,33.1,31,30.03,10.0,ESE,3.5,-,N/A,,Scattered Clouds,120,2013-03-03 06:51:00